User: anonymous
Location: Kitchener
(43.2612°N, 80.5078°W)
Time: 17:27:52
(UTC+02:00)
Language:

Iridium 57 - Orbit

View from above orbital plane
View from above orbital plane
View from above satellite
View from above satellite

Ground track
Ground track

The orbit data is extracted from the following two-line orbital elements,

1 25273U 98019B   14258.38051099  .00000383  00000-0  12977-3 0  8926
2 25273 086.4013 347.7164 0002342 110.4361 249.7086 14.34217511861901
Epoch (UTC): 15 September 2014 09:07:56
Eccentricity: 0.0002342
inclination: 86.4013°
perigee height: 776 km
apogee height: 779 km
right ascension of ascending node: 347.7164°
argument of perigee: 110.4361°
revolutions per day: 14.34217511
mean anomaly at epoch: 249.7086°
orbit number at epoch: 86190

The dashed part of the orbit path shows where the satellite is in the earth's shadow,  

DLR